Regional Weather Roundup
Issued by NWS

Home | Current Version | Previous Version | Graphics & Text | Print | Product List | Glossary On
Versions: 1 2 3 4 5 6 7 8 9 10 11 12 13 14 15 16 17 18 19 20 21 22 23 24 25 26 27 28 29 30 31 32 33 34 35 36 37 38 39 40 41 42 43 44 45 46 47 48 49 50
000
ASUS43 KLSX 241607
RWRMO

WEATHER SUMMARY FOR MISSOURI
NATIONAL WEATHER SERVICE SPRINGFIELD MO
1100 AM CDT SAT JUN 24 2017

NOTE: "FAIR" INDICATES FEW OR NO CLOUDS BELOW 12,000 FEET WITH NO
       SIGNIFICANT WEATHER AND/OR OBSTRUCTIONS TO VISIBILITY.
       CURRENT SKY AND/OR WEATHER CONDITIONS ARE NOT AVAILABLE FOR
       CHILLICOTHE AND FARMINGTON.

MOZ001>031-035>038-043-044-053-054-241700-
...NORTHERN AND WESTERN MISSOURI...

CITY           SKY/WX    TMP DP  RH WIND       PRES   REMARKS
KANSAS CTY INT MOSUNNY   72  46  39 CALM      30.24S
KANSAS C DTWN  SUNNY     74  39  28 NW8       30.23R
LEE`S SUMMIT   SUNNY     73  41  31 N12       30.25R
ST JOSEPH      SUNNY     74  43  32 NW7       30.23R
CHILLICOTHE      N/A     72  42  34 VRB5      30.22R
KIRKSVILLE     SUNNY     71  42  35 NW14      30.19R

$$
MOZ066>068-077>081-088>096-101>105-241700-
...SOUTHWEST MISSOURI...

CITY           SKY/WX    TMP DP  RH WIND       PRES   REMARKS
SPRINGFIELD    MOSUNNY   74  54  49 N7        30.21R
JOPLIN         MOSUNNY   76  53  44 NE7       30.24R
BRANSON        PTSUNNY   72  57  60 N9        30.22S

$$
MOZ032>034-039>042-045>050-055>058-069>072-241700-
...CENTRAL MISSOURI...

CITY           SKY/WX    TMP DP  RH WIND       PRES   REMARKS
COLUMBIA       SUNNY     73  49  42 NW18      30.18R
JEFFERSON CITY SUNNY     74  43  32 NW14G22   30.17R
ROLLA          MOSUNNY   71  51  49 NW10      30.17R
SEDALIA        SUNNY     74  50  42 NW12G18   30.21S
WHITEMAN AFB   SUNNY     72  43  35 NW14      30.20R
WARRENSBURG    SUNNY     72  41  33 NW10G16   30.22S
OSAGE BEACH    PTSUNNY   73  51  46 NW6       30.20R

$$
MOZ051-052-059>065-241700-
...EAST CENTRAL MISSOURI...

CITY           SKY/WX    TMP DP  RH WIND       PRES   REMARKS
ST LOUIS INTL  MOSUNNY   76  48  37 NW16G24   30.14R
SPIRIT OF STL  MOSUNNY   74  49  41 NW10      30.13R
ST CHARLES     SUNNY     74  48  39 NW15      30.12R

$$
MOZ072>076-082>087-097>100-106>115-241700-
...SOUTH CENTRAL AND SOUTHEAST MISSOURI...

CITY           SKY/WX    TMP DP  RH WIND       PRES   REMARKS
CAPE GIRARDEAU SUNNY     76  55  48 N13       30.11R
FARMINGTON     MOSUNNY   72  52  49 NW13      30.16R
POPLAR BLUFF   SUNNY     77  58  51 N8        30.13R
WEST PLAINS    SUNNY     75  54  47 N6        30.19S

$$



USA.gov is the U.S. government's official web portal to all federal, state and local government web resources and services.